[Date Prev][Date Next][Thread Prev][Thread Next] - [Date Index][Thread Index][Author Index]
2 Line ISS Keps 6-6
- Subject: [sarex] 2 Line ISS Keps 6-6
- From: "Dave Larsen PhD" <doc@xxxxxxxxxxx>
- Date: Sun, 6 Jun 2004 05:18:15 -0700
ISS
1 25544U 98067A 04158.44856938 .00015055 00000-0 13376-3 0 9354
2 25544 51.6334 20.4778 0005607 197.4047 231.6039 15.68754671316635
----
Via the sarex mailing list at AMSAT.ORG courtesy of AMSAT-NA.
To unsubscribe, send "unsubscribe sarex" to Majordomo@amsat.org
AMSAT Home